Thu, 28 Oct 2021 12:44:52 UTC

Information for RPM dash-0.5.6-3.fc15.i686.rpm

ID2372370
Namedash
Version0.5.6
Release3.fc15
Epoch
Archi686
SummarySmall and fast POSIX-compliant shell
DescriptionDASH is a POSIX-compliant implementation of /bin/sh that aims to be as small as possible. It does this without sacrificing speed where possible. In fact, it is significantly faster than bash (the GNU Bourne-Again SHell) for most tasks.
Build Time2011-02-08 13:08:38 GMT
Size72,444
e555a0ab6269b81ebe15525f876a789b
LicenseBSD
Buildrootdist-f15-build-981278-147419
Provides
dash = 0.5.6-3.fc15
dash(x86-32) = 0.5.6-3.fc15
Obsoletes No Obsoletes
Conflicts No Conflicts
Requires
libc.so.6
libc.so.6(GLIBC_2.0)
libc.so.6(GLIBC_2.1)
libc.so.6(GLIBC_2.1.1)
libc.so.6(GLIBC_2.11)
libc.so.6(GLIBC_2.2)
libc.so.6(GLIBC_2.3)
libc.so.6(GLIBC_2.3.4)
libc.so.6(GLIBC_2.4)
libgcc_s.so.1
libgcc_s.so.1(GCC_3.0)
libgcc_s.so.1(GCC_3.3.1)
rpmlib(CompressedFileNames) <= 3.0.4-1
rpmlib(FileDigests) <= 4.6.0-1
rpmlib(PayloadFilesHavePrefix) <= 4.0-1
rpmlib(PayloadIsXz) <= 5.2-1
rtld(GNU_HASH)
Recommends No Recommends
Suggests No Suggests
Supplements No Supplements
Enhances No Enhances
Files
1 through 2 of 2
Name ascending sort Size
/bin/dash97,500
/usr/share/man/man1/dash.1.gz21,106
Component of
Page:
1 through 50 of 15461 >>>
Buildroot descending sort Created State
dist-f15-build-1069532-161554 2011-05-25 13:37:36 expired
dist-f15-build-1069528-161554 2011-05-25 13:32:32 expired
dist-f15-build-1069514-161554 2011-05-25 13:08:28 expired
dist-f15-build-1069510-161554 2011-05-25 13:05:35 expired
dist-f15-build-1069508-161554 2011-05-25 12:54:24 expired
dist-f15-build-1069499-161554 2011-05-25 12:38:07 expired
dist-f15-build-1069486-161532 2011-05-25 12:17:49 expired
dist-f15-build-1069484-161532 2011-05-25 12:15:22 expired
dist-f15-build-1069466-161532 2011-05-25 11:04:12 expired
dist-f15-build-1069445-161532 2011-05-25 10:36:39 expired
dist-f15-build-1069411-161532 2011-05-25 10:05:22 expired
dist-f15-build-1069390-161532 2011-05-25 09:26:39 expired
dist-f15-build-1069384-161532 2011-05-25 08:56:20 expired
dist-f15-build-1069376-161526 2011-05-25 08:49:21 expired
dist-f15-build-1069373-161526 2011-05-25 08:47:46 expired
dist-f15-build-1069368-161498 2011-05-25 08:19:05 expired
dist-f15-build-1069365-161498 2011-05-25 08:16:14 expired
dist-f15-build-1069362-161498 2011-05-25 08:01:53 expired
dist-f15-build-1069349-161498 2011-05-25 07:49:32 expired
dist-f15-build-1069344-161498 2011-05-25 07:25:22 expired
dist-f15-build-1069340-161498 2011-05-25 05:04:08 expired
dist-f15-build-1069338-161498 2011-05-25 05:01:39 expired
dist-f15-build-1069327-161498 2011-05-25 03:39:21 expired
dist-f15-build-1069289-161498 2011-05-24 21:52:58 expired
dist-f15-build-1069284-161474 2011-05-24 21:38:06 expired
dist-f15-build-1069281-161474 2011-05-24 21:35:32 expired
dist-f15-build-1069276-161474 2011-05-24 21:29:46 expired
dist-f15-build-1069274-161474 2011-05-24 21:29:32 expired
dist-f15-build-1069269-161474 2011-05-24 21:24:47 expired
dist-f15-build-1069268-161474 2011-05-24 21:17:18 expired
dist-f15-build-1069261-161474 2011-05-24 21:02:23 expired
dist-f15-build-1069252-161474 2011-05-24 20:29:13 expired
dist-f15-build-1069229-161474 2011-05-24 19:20:40 expired
dist-f15-build-1069217-161474 2011-05-24 19:00:19 expired
dist-f15-build-1069197-161474 2011-05-24 17:53:14 expired
dist-f15-build-1069194-161474 2011-05-24 17:48:32 expired
dist-f15-build-1069191-161474 2011-05-24 17:46:07 expired
dist-f15-build-1069189-161474 2011-05-24 17:41:48 expired
dist-f15-build-1069133-161474 2011-05-24 16:18:08 expired
dist-f15-build-1069125-161474 2011-05-24 16:15:24 expired
dist-f15-build-1069117-161474 2011-05-24 15:58:29 expired
dist-f15-build-1069103-161474 2011-05-24 15:45:25 expired
dist-f15-build-1069045-161448 2011-05-24 14:15:24 expired
dist-f15-build-1069042-161448 2011-05-24 14:12:37 expired
dist-f15-build-1069034-161448 2011-05-24 14:01:14 expired
dist-f15-build-1069033-161448 2011-05-24 14:01:07 expired
dist-f15-build-1069031-161448 2011-05-24 14:00:11 expired
dist-f15-build-1069005-161448 2011-05-24 13:05:23 expired
dist-f15-build-1069003-161448 2011-05-24 13:02:48 expired
dist-f15-build-1068951-161431 2011-05-24 10:37:20 expired